Regional Weather Roundup
Issued by NWS

Home | Current Version | Previous Version | Graphics & Text | Print | Product List | Glossary On
Versions: 1 2 3 4 5 6 7 8 9 10 11 12 13 14 15 16 17 18 19 20 21 22 23 24 25 26 27 28 29 30 31 32 33 34 35 36 37 38 39 40 41 42 43 44 45 46 47 48 49 50
870
ASUS44 KJAN 241010
RWRMS

MISSISSIPPI HOURLY WEATHER ROUNDUP
NATIONAL WEATHER SERVICE JACKSON MS
500 AM CDT THU APR 24 2014

NOTE: "FAIR: INDICATES FEW OR NO CLOUDS BELOW 12,000 FEET WITH NO
SIGNIFICANT WEATHER AND/OR OBSTRUCTIONS TO VISIBILITY.

MSZ001>002-007>008-010>013-018>021-025>028-034>036-241100-
NORTHWEST MISSISSIPPI

CITY           SKY/WX    TMP DP  RH WIND       PRES   REMARKS
CLARKSDALE       N/A     54  46  76 CALM      29.91S
CLEVELAND      FAIR      56  49  75 E5        29.89S
GREENWOOD      CLEAR     55  43  63 CALM      29.90R
GREENVILLE     CLEAR     59  48  67 E9        29.88S
GRENADA        FAIR      45  45 100 CALM      29.92R
OLIVE BRANCH   CLEAR     52  43  71 SE3       29.92S
OXFORD         FAIR      55  39  54 SE3       29.93S
TUNICA         SUNNY     50  43  76 CALM      29.92R
$$

MSZ003>006-009-014>017-022>024-029>033-037>039-241100-
NORTHEAST MISSISSIPPI

CITY           SKY/WX    TMP DP  RH WIND       PRES   REMARKS
BELMONT        FAIR      44  42  93 CALM      29.94S
COLUMBUS AFB   CLEAR     46  46  99 SE5       29.93F
CORINTH        FAIR      43  41  93 CALM      29.94S
GOLDN TRIANGLE CLEAR     54  41  62 CALM      29.95F
STARKVILLE     FAIR      46  45  93 CALM      29.93S
TUPELO         CLEAR     46  43  89 NE3       29.92F
$$

MSZ040-058-241100-
CENTRAL MISSISSIPPI

CITY           SKY/WX    TMP DP  RH WIND       PRES   REMARKS
JACKSON INTL   PTCLDY    58  51  78 CALM      29.89S
JACKSON HAWKNS PTCLDY    59  50  72 SE5       29.90S
MERIDIAN KEY   PTCLDY    52  50  93 CALM      29.93S
MERIDIAN NAS   MOCLDY    53  50  89 CALM      29.93F
RAYMOND        FAIR      54  48  82 CALM      29.89S
VICKSBURG      MOCLDY    58  53  84 SE5       29.89S
$$

MSZ059>079-241100-
SOUTH MISSISSIPPI

CITY           SKY/WX    TMP DP  RH WIND       PRES   REMARKS
BROOKHAVEN     FAIR      55  55 100 CALM      29.91F
HATTIESBURG    PTCLDY    60  58  92 CALM      29.92S
MCCOMB         CLEAR     59  57  93 CALM      29.90S FOG
NATCHEZ        MOCLDY    55  52  88 CALM      29.89R
PINE BELT      PTCLDY    57  55  94 CALM      29.93S
$$

MSZ080>082-241100-
COASTAL MISSISSIPPI

CITY           SKY/WX    TMP DP  RH WIND       PRES   REMARKS
BILOXI         CLEAR     66  66 100 CALM      29.92S
PASCAGOULA     FOG       59  59 100 CALM      29.92S VSB 1/4
GULFPORT       CLEAR     64  60  87 CALM      29.91S FOG
$$



USA.gov is the U.S. government's official web portal to all federal, state and local government web resources and services.